Showing default

INTELSAT 10 (PAS 10), 26766

Orbit data source: Space-Track

INTELSAT 10 (PAS 10), 26766 is a payload satellite owned by Panamsat (US) in GEO that was launched on Tue, 15 May 2001 UTC via a PROTON-K/DM-2M launch vehicle from the Tyuratam Missile And Space Complex (TTMTR). Payload-class satellites include a variety of spacecraft equipped with specific instruments for various scientific and technological missions. These include communications satellites like Starlink; space stations such as the ISS; scientific satellites like the Hubble; Earth observation satellites from companies like Planet Labs, Umbra, and HawkEye 360; GPS; miniature CubeSats for education and research; and military/defense satellites.

Not visible in the next 10 days
Identifier
26766, 2001-019A
Orbit
GEO
Country
Flag of USUS
Related business
Manufacturer
Boeing/ES
Mission
On reserve Commercial Communications
Bus & Motor
HS-601HP, R-4D-11-300
Mass
3,772 kg wet, ~2,000 kg dry
Launch date (UTC)
2001-05-15 (25 years ago)
Launch vehicle
PROTON-K/DM-2M
Launch site
Tyuratam Missile And Space Complex (TTMTR)
Object type
Payload
Rocket body
Debris
Shape & HBR
Box + 2 Pan, 13.0 m
Radar Cross Section
31.072 m², Large (>1 m²)

Expand to show TLE details & history
Last TLE update: 1 day ago

TLE from 1 day ago
0 INTELSAT 10 (PAS 10)
1 26766U 01019A   25349.58286765 -.00000235  00000-0  00000-0 0  9999
2 26766   8.6363  61.1289 0007692 227.1002 132.6392  0.99077622 43757
Epoch: 2025-12-15T13:59Z
TLE epoch observation values (Epoch: 2025-12-15T13:59:19.764Z)
Latitude
-0.011°
Longitude
126.61791°
Altitude
36,146.555 km
Speed
3.061 km/s
True Right ascension
04h 03m 43s
True Declination
0° 00' 40"
Sunlit
Object was in daylight at epoch
Visualization orbit readout
Latitude
Unknown
Longitude
Unknown
Altitude
Unknown
Speed
Unknown
Apparent Right ascension
Unknown
Apparent Declination
Unknown
Sunlit
N/A
Visualization observer readout
Local Sidereal Time
17:22:57
Azimuth
Unknown
Elevation
Unknown
Doppler factor
Unknown
Orbital elements
Apogee altitude
36,158.441 km
Perigee altitude
36,093.053 km
Semi-major axis
42,503.884 km
Eccentricity
0.00077
Inclination
8.6363°
RAAN
61.1289°
Arg. of periapsis
227.1002°
True anomaly
132.704°
Mean anomaly
132.6392°
Eccentric anomaly
132.6716°
Mean motion
0.24769 °/min
Orbital period
1,453.46 mins
BSTAR
0
Loading maneuver chart data...
Computing Atmospheric mass density...
Loading historical data...
Loading historical data...
Loading historical data...
Loading historical data...
Loading historical data...
Loading historical data...
Loading historical data...
Other satellites on launch #19 in the year 2001 (2001-05-15 UTC)

Documentation

Showing up to 5 results
|